When you browse on this site, cookies collect data to enhance your experience and personalize the content and advertising you see.
Visit our Privacy Policy to learn more. By continuing to use the site, you agree to this use of cookies and data.
  • In Hungary
  • List of Countries
  • For 7 days
  • Water Temperature
  • Satellite Maps
  • Weather Map
  • News
  • Weather Widgets
  • user-avatar
    Login

    Hourly Weather Kerpichli

    Today, 18 April, Thursday

    Time Temperature Precipitation Wind Pressure Humidity
    00:00 +22°C° 0 mm 3 mps 737 mmHg 42%
    01:00 +22°C° 0 mm 4 mps 737 mmHg 44%
    02:00 +21°C° 0 mm 4 mps 737 mmHg 46%
    03:00 +21°C° 0 mm 5 mps 737 mmHg 47%
    04:00 +21°C° 0 mm 6 mps 736 mmHg 48%
    05:00 +22°C° 0 mm 7 mps 737 mmHg 46%
    06:00 +23°C° 0 mm 9 mps 737 mmHg 43%
    07:00 +24°C° 0 mm 10 mps 737 mmHg 40%
    08:00 +26°C° 0 mm 11 mps 737 mmHg 36%
    09:00 +28°C° 0 mm 12 mps 737 mmHg 31%
    10:00 +31°C° 0 mm 12 mps 737 mmHg 27%
    11:00 +32°C° 0 mm 11 mps 736 mmHg 24%
    12:00 +33°C° 0 mm 11 mps 736 mmHg 22%
    13:00 +34°C° 0 mm 10 mps 736 mmHg 19%
    14:00 +34°C° 0 mm 10 mps 736 mmHg 19%
    15:00 +34°C° 0 mm 9 mps 735 mmHg 19%
    16:00 +34°C° 0 mm 9 mps 735 mmHg 19%
    17:00 +33°C° 0 mm 9 mps 735 mmHg 20%
    18:00 +32°C° 0 mm 9 mps 735 mmHg 22%
    19:00 +31°C° 0 mm 9 mps 735 mmHg 23%
    20:00 +31°C° 0 mm 10 mps 736 mmHg 24%
    21:00 +29°C° 0 mm 11 mps 736 mmHg 25%
    22:00 +29°C° 0 mm 12 mps 736 mmHg 26%
    23:00 +29°C° 0 mm 11 mps 736 mmHg 27%

    Tomorrow, 19 April, Friday

    Time Temperature Precipitation Wind Pressure Humidity
    00:00 +28°C° 0 mm 11 mps 736 mmHg 27%
    01:00 +28°C° 0 mm 11 mps 736 mmHg 28%
    02:00 +27°C° 0.2 mm 8 mps 736 mmHg 31%
    03:00 +26°C° 0.2 mm 5 mps 736 mmHg 35%
    04:00 +25°C° 0.2 mm 3 mps 736 mmHg 39%
    05:00 +25°C° 0 mm 4 mps 737 mmHg 41%
    06:00 +24°C° 0 mm 6 mps 737 mmHg 43%
    07:00 +23°C° 0 mm 7 mps 738 mmHg 45%
    08:00 +23°C° 0.1 mm 8 mps 738 mmHg 48%
    09:00 +22°C° 0.1 mm 8 mps 738 mmHg 51%
    10:00 +22°C° 0.1 mm 8 mps 738 mmHg 54%
    11:00 +23°C° 0 mm 7 mps 738 mmHg 50%
    12:00 +26°C° 0 mm 7 mps 738 mmHg 45%
    13:00 +27°C° 0 mm 6 mps 737 mmHg 40%
    14:00 +28°C° 0 mm 5 mps 737 mmHg 38%
    15:00 +29°C° 0 mm 5 mps 736 mmHg 36%
    16:00 +29°C° 0 mm 5 mps 736 mmHg 34%
    17:00 +28°C° 0 mm 5 mps 736 mmHg 38%
    18:00 +27°C° 0 mm 5 mps 735 mmHg 42%
    19:00 +26°C° 0 mm 5 mps 735 mmHg 46%
    20:00 +25°C° 0 mm 5 mps 735 mmHg 50%
    21:00 +25°C° 0 mm 4 mps 735 mmHg 53%
    22:00 +23°C° 0 mm 4 mps 735 mmHg 56%
    23:00 +22°C° 0.5 mm 5 mps 735 mmHg 58%

    Day after tomorrow, 20 April, Saturday

    Time Temperature Precipitation Wind Pressure Humidity
    00:00 +22°C° 0.5 mm 5 mps 735 mmHg 60%
    01:00 +22°C° 0.5 mm 6 mps 735 mmHg 62%
    02:00 +21°C° 0.1 mm 6 mps 735 mmHg 63%
    03:00 +21°C° 0.1 mm 6 mps 735 mmHg 64%
    04:00 +20°C° 0.1 mm 5 mps 735 mmHg 64%
    05:00 +20°C° 0.4 mm 5 mps 735 mmHg 66%
    06:00 +20°C° 0.4 mm 6 mps 735 mmHg 67%
    07:00 +19°C° 0.4 mm 6 mps 735 mmHg 68%
    08:00 +20°C° 0.9 mm 5 mps 736 mmHg 65%
    09:00 +21°C° 0.9 mm 5 mps 736 mmHg 61%
    10:00 +22°C° 0.9 mm 5 mps 736 mmHg 58%
    11:00 +23°C° 0.6 mm 5 mps 736 mmHg 53%
    12:00 +25°C° 0.6 mm 5 mps 735 mmHg 49%
    13:00 +26°C° 0.6 mm 5 mps 735 mmHg 44%
    14:00 +27°C° 0.1 mm 4 mps 734 mmHg 43%
    15:00 +27°C° 0.1 mm 4 mps 734 mmHg 42%
    16:00 +27°C° 0.1 mm 4 mps 733 mmHg 41%
    17:00 +27°C° 0.2 mm 3 mps 734 mmHg 45%
    18:00 +26°C° 0.2 mm 3 mps 734 mmHg 48%
    19:00 +25°C° 0.2 mm 3 mps 734 mmHg 52%
    20:00 +24°C° 0 mm 3 mps 734 mmHg 54%
    21:00 +24°C° 0 mm 3 mps 735 mmHg 57%
    22:00 +22°C° 0 mm 4 mps 735 mmHg 60%
    23:00 +22°C° 0.2 mm 4 mps 735 mmHg 63%

    21 April, Sunday

    Time Temperature Precipitation Wind Pressure Humidity
    00:00 +21°C° 0.2 mm 4 mps 735 mmHg 66%
    01:00 +20°C° 0.2 mm 5 mps 735 mmHg 70%
    02:00 +20°C° 0.5 mm 5 mps 735 mmHg 71%
    03:00 +20°C° 0.5 mm 5 mps 735 mmHg 73%
    04:00 +19°C° 0.5 mm 5 mps 736 mmHg 75%
    05:00 +19°C° 0.9 mm 5 mps 736 mmHg 73%
    06:00 +19°C° 0.9 mm 6 mps 737 mmHg 72%
    07:00 +19°C° 0.9 mm 6 mps 738 mmHg 70%
    08:00 +19°C° 0.5 mm 6 mps 738 mmHg 67%
    09:00 +19°C° 0.5 mm 6 mps 739 mmHg 65%
    10:00 +19°C° 0.5 mm 6 mps 740 mmHg 63%
    11:00 +19°C° 0.1 mm 6 mps 740 mmHg 60%
    12:00 +19°C° 0.1 mm 6 mps 740 mmHg 58%
    13:00 +19°C° 0.1 mm 6 mps 740 mmHg 55%
    14:00 +19°C° 0 mm 6 mps 739 mmHg 53%
    15:00 +19°C° 0 mm 6 mps 739 mmHg 50%
    16:00 +19°C° 0 mm 6 mps 739 mmHg 48%
    17:00 +19°C° 0 mm 5 mps 740 mmHg 48%
    18:00 +19°C° 0 mm 4 mps 740 mmHg 49%
    19:00 +19°C° 0 mm 3 mps 740 mmHg 50%
    20:00 +19°C° 0 mm 3 mps 741 mmHg 51%
    21:00 +18°C° 0 mm 3 mps 741 mmHg 51%
    22:00 +18°C° 0 mm 3 mps 742 mmHg 52%
    23:00 +18°C° 0 mm 3 mps 741 mmHg 52%

    22 April, Monday

    Time Temperature Precipitation Wind Pressure Humidity
    00:00 +17°C° 0 mm 3 mps 741 mmHg 52%
    01:00 +16°C° 0 mm 3 mps 741 mmHg 53%
    02:00 +16°C° 0 mm 3 mps 741 mmHg 53%
    03:00 +16°C° 0 mm 3 mps 741 mmHg 53%
    04:00 +14°C° 0 mm 3 mps 741 mmHg 54%
    05:00 +15°C° 0 mm 4 mps 741 mmHg 51%
    06:00 +16°C° 0 mm 5 mps 742 mmHg 48%
    07:00 +16°C° 0 mm 6 mps 742 mmHg 45%
    08:00 +19°C° 0 mm 6 mps 742 mmHg 40%
    09:00 +21°C° 0 mm 6 mps 742 mmHg 36%
    10:00 +23°C° 0 mm 7 mps 742 mmHg 32%
    11:00 +24°C° 0 mm 6 mps 741 mmHg 31%
    12:00 +26°C° 0 mm 6 mps 740 mmHg 30%
    13:00 +27°C° 0 mm 5 mps 740 mmHg 29%
    14:00 +27°C° 0 mm 6 mps 739 mmHg 29%
    15:00 +27°C° 0 mm 6 mps 739 mmHg 30%
    16:00 +27°C° 0 mm 7 mps 738 mmHg 30%
    17:00 +26°C° 0 mm 7 mps 737 mmHg 32%
    18:00 +24°C° 0 mm 7 mps 737 mmHg 34%
    19:00 +23°C° 0 mm 7 mps 737 mmHg 36%
    20:00 +23°C° 0 mm 7 mps 736 mmHg 38%
    21:00 +22°C° 0 mm 6 mps 736 mmHg 40%
    22:00 +22°C° 0 mm 5 mps 736 mmHg 42%
    23:00 +22°C° 0 mm 4 mps 735 mmHg 45%

    23 April, Tuesday

    Time Temperature Precipitation Wind Pressure Humidity
    00:00 +22°C° 0 mm 3 mps 734 mmHg 47%
    01:00 +21°C° 0 mm 2 mps 734 mmHg 50%
    02:00 +21°C° 0.2 mm 2 mps 734 mmHg 52%
    03:00 +21°C° 0.2 mm 3 mps 734 mmHg 54%
    04:00 +21°C° 0.2 mm 3 mps 734 mmHg 56%
    05:00 +22°C° 0 mm 3 mps 734 mmHg 51%
    06:00 +24°C° 0 mm 3 mps 733 mmHg 46%
    07:00 +25°C° 0 mm 3 mps 733 mmHg 41%
    08:00 +27°C° 0 mm 5 mps 733 mmHg 36%
    09:00 +29°C° 0 mm 7 mps 733 mmHg 31%
    10:00 +32°C° 0 mm 8 mps 733 mmHg 26%
    11:00 +32°C° 0 mm 9 mps 733 mmHg 25%
    12:00 +33°C° 0 mm 10 mps 732 mmHg 25%
    13:00 +34°C° 0 mm 10 mps 732 mmHg 25%
    14:00 +34°C° 0.2 mm 9 mps 731 mmHg 26%
    15:00 +34°C° 0.2 mm 7 mps 731 mmHg 26%
    16:00 +33°C° 0.2 mm 5 mps 730 mmHg 27%
    17:00 +30°C° 3.1 mm 6 mps 731 mmHg 39%
    18:00 +27°C° 3.1 mm 7 mps 732 mmHg 50%
    19:00 +24°C° 3.1 mm 8 mps 733 mmHg 62%
    20:00 +23°C° 2.5 mm 7 mps 733 mmHg 67%
    21:00 +22°C° 2.5 mm 5 mps 734 mmHg 72%
    22:00 +22°C° 2.5 mm 4 mps 734 mmHg 77%
    23:00 +21°C° 2.7 mm 7 mps 735 mmHg 74%
    Show more